AirNav  
 
 999 users online  

55FL The Murphy Company Heliport
West Palm Beach, Florida, USA

GOING TO WEST PALM BEACH?


FAA INFORMATION EFFECTIVE 04 JANUARY 2018

Location

FAA Identifier: 55FL
Lat/Long: 26-41-14.2360N / 080-03-26.1490W
26-41.237267N / 080-03.435817W
26.6872878 / -80.0572636
(estimated)
Elevation: 15 ft. / 5 m (estimated)
Variation: 03W (1985)
From city: 2 miles SW of WEST PALM BEACH, FL
Time zone: UTC -5 (UTC -4 during Daylight Saving Time)
Zip code: 33405

Heliport Operations

Heliport use: Private use. Permission required prior to landing
Activation date: 02/1982
Control tower: no
ARTCC: MIAMI CENTER
FSS: MIAMI FLIGHT SERVICE STATION
Attendance: UNATNDD
Wind indicator: yes
Segmented circle: yes

Heliport Communications

WX ASOS at PBI (2.1 nm W): 123.75 (561-683-2548)
WX AWOS-3PT at LNA (6 nm S): 119.925 (561-964-0308)
WX AWOS-3 at F45 (13 nm NW): 119.975 (561-630-6932)
WX AWOS-3 at BCT (19 nm S): 121.125 (561-391-2696)

Nearby radio navigation aids

VOR radial/distance  VOR name  Freq  Var
PBIr078/1.6PALM BEACH VORTAC115.7003W
PHKr100/34.5PAHOKEE VOR/DME115.4000E
FLLr015/37.3FORT LAUDERDALE VOR/DME114.4006W

 
NDB name  Hdg/Dist  Freq  Var  ID
UNITED137/20.040505WUTX ..- - -..-

Heliport Services

Runway Information

Helipad H1

Dimensions: 50 x 50 ft. / 15 x 15 m
DIMENSIONS & SFC CMPSN UNKNOWN.
Surface: concrete, in good condition
Latitude: 26-41.237267N
Longitude: 080-03.435817W
Elevation: 15.0 ft.
Traffic pattern: leftleft
Markings: none, in good condition

Heliport Ownership and Management from official FAA records

Ownership: Privately-owned
Owner: MARTIN E. MURPHY
1615 CLARE AVE
WEST PALM BEACH, FL 33401
Phone 561-655-3634
EXT 119
Manager: MARTIN E. MURPHY
1615 CLARE AVE
WEST PALM BEACH, FL 33401
Phone 561-655-3634
EXT 119

Heliport Operational Statistics

Aircraft based on the field: 1
Helicopters: 1
    

Instrument Procedures

There are no published instrument procedures at 55FL.

Some nearby airports with instrument procedures:

KPBI - Palm Beach International Airport (2 nm W)
KLNA - Palm Beach County Park Airport (6 nm S)
F45 - North Palm Beach County General Aviation Airport (13 nm NW)
KBCT - Boca Raton Airport (19 nm S)
06FA - William P Gwinn Airport (20 nm NW)
 
Loc | Ops | Rwys | IFR | FBO | Links
Com | Nav | Svcs | Stats | Notes

Reliance Aviation
AirBoss

 
Area around 55FL (The Murphy Company Heliport)
 
Road maps at: MapQuest Bing Google
 
Aerial photo
No photo
 
Sectional chart

 
Airport distance calculator
Flying to The Murphy Company Heliport? Find the distance to fly.

From to 55FL

Sunrise and sunset
Times for 21-Jan-2018
 Local
(UTC-5)
 Zulu
(UTC)
Morning civil twilight06:4611:46
Sunrise07:1012:10
Sunset17:5322:53
Evening civil twilight18:1823:18

Current date and time
Zulu (UTC)  22-Jan-2018 01:19:43
Local (UTC-5)  21-Jan-2018 20:19:43
 
METAR
KPBI 
2nm W 
220053Z 09015G21KT 10SM SCT018 22/19 A3016 RMK AO2 SLP211 T02220189 $
KLNA 
6nm S 
220055Z AUTO 09009G16KT 10SM SCT018 22/19 A3015 RMK AO2 T02150186
KBCT 
18nm S 
220047Z 09011G17KT 10SM SCT020 22/19 A3014
TAF
KPBI 
2nm W 
212109Z 2121/2218 08012KT P6SM SCT025 BKN060 FM220000 09010KT P6SM FEW025 SCT250
NOTAMs
Click for the latest NOTAMs
NOTAMs are issued by the DoD/FAA and will open in a separate window not controlled by AirNav.

 

 
 

Would you like to see your business listed on this page?

 If your business provides an interesting product or service to pilots, flight crews, aircraft, or users of the The Murphy Company Heliport, you should consider listing it here.  To start the listing process, click on the button below
 
Add a business
 

Other Pages about The Murphy Company Heliport

Update a link
 
Copyright © AirNav, LLC. All rights reserved. Privacy Policy  Contact